ラーソン彗星

413P/Larson (2021)

English version
Home page
Updated on June 14, 2021

---------------------------------------------------------------------

・ プロフィール

符号 413P/2020 W4
検出日 2020年11月25日
検出光度 20.5等
検出者 E. Schwab (Egelsbach, Germany)

・ 写真集

・ 軌道要素

Epoch 2021 July 5.0 TT = JDT 2459400.5
T 2021 July 20.20533 TT                                 Rudenko
q   2.1398715            (2000.0)            P               Q
n   0.13789883     Peri.  186.03972     -0.70886542     +0.68371613
a   3.7104706      Node    39.02513     -0.63507350     -0.51175162
e   0.4232884      Incl.   15.97807     -0.30690628     -0.52023315
P   7.15
From 646 observations 2014 Jan. 6-2021 May 1, mean residual 0".9.

・ 星図

・ 光度変化

        m1 = 11.0 + 5 logΔ + 15.0 log r

---------------------------------------------------------------------

軌道要素はM.P.E.C. 2021-J28に掲載されたものです。
星図はステラナビゲータ Ver.10 (アストロアーツ) で作成したものです。
光度グラフはComet for Windowsで作成したものです。

---------------------------------------------------------------------

Copyright(C) Seiichi Yoshida (comet@aerith.net). All rights reserved.